Regional Weather Roundup
Issued by NWS

Home | Current Version | Previous Version | Graphics & Text | Print | Product List | Glossary Off
Versions: 1 2 3 4 5 6 7 8 9 10 11 12 13 14 15 16 17 18 19 20 21 22 23 24 25 26 27 28 29 30 31 32 33 34 35 36 37 38 39 40 41 42 43 44 45 46 47 48 49 50

000
ASUS43 KDMX 171906
RWRIA

WEATHER ROUNDUP FOR IOWA
NATIONAL WEATHER SERVICE DES MOINES IA
100 PM CST TUE JAN 17 2017

NOTE: "FAIR" INDICATES FEW OR NO CLOUDS BELOW 12,000 FEET WITH NO
SIGNIFICANT WEATHER AND/OR OBSTRUCTIONS TO VISIBILITY.

* - THESE STATIONS ARE NOT NWS STATIONS...THUS NOT UNDER NWS
QUALITY CONTROL.  THEY ALSO DO NOT REPORT WEATHER SUCH
AS PRECIPITATION OR FOG.

IAZ001>003-012>014-020>022-031>034-043>046-172000-
   NORTHWEST IOWA

CITY           SKY/WX    TMP DP  RH WIND       PRES   REMARKS
CARROLL *      CLOUDY    32  32 100 W12       30.01F WCI  23
CHEROKEE *     CLOUDY    28  28 100 W6        30.04S WCI  22
DENISON *      CLOUDY    28  28 100 W9        30.03S FOG     WCI  20
LE MARS *      SUNNY     28  25  86 SW7       30.06F WCI  21
ORANGE CITY *  SUNNY     27  25  93 W6        30.03F WCI  20
SHELDON *      SUNNY     27  27 100 W6        30.01F WCI  20
SIOUX CITY     SUNNY     31  24  75 W7        30.06F WCI  24
SPENCER        FOG       30  29  96 W13       30.01F VSB 3/4 WCI  20
STORM LAKE *   FOG       28  28 100 W16       30.02S VSB<1/4 WCI  17
$$

IAZ055>058-069>071-079>083-090>094-172000-
   SOUTHWEST IOWA

CITY           SKY/WX    TMP DP  RH WIND       PRES   REMARKS
ATLANTIC *     CLOUDY    32  32 100 W6        30.04F FOG     WCI  26
AUDUBON *      CLOUDY    30  28  93 CALM      30.03F FOG
CLARINDA *     CLOUDY    34  32  93 NW8       30.08F FOG     WCI  27
COUNCIL BLFS * CLOUDY    30  30 100 W8        30.05F WCI  23
CRESTON *      CLOUDY    32  32 100 W10       30.03F FOG     WCI  24
HARLAN  *      CLOUDY    30  30 100 W6        30.07F WCI  24
LAMONI         CLOUDY    35  33  92 W15       30.02F FOG     WCI  25
RED OAK *      CLOUDY    32  30  93 W6        30.07S FOG     WCI  26
SHENANDOAH *   CLOUDY    32  30  93 W6        30.08F WCI  26
$$

IAZ047>049-059>061-072>074-084-172000-
   CENTRAL IOWA

CITY           SKY/WX    TMP DP  RH WIND       PRES   REMARKS
AMES           CLOUDY    35  34  96 NW14      29.99F FOG     WCI  26
ANKENY *       CLOUDY    36  34  93 W14       30.01F FOG     WCI  27
BOONE *        CLOUDY    34  34 100 W13G18    29.98F FOG     WCI  25
CHARITON *     CLOUDY    36  34  93 W10G17    30.00F FOG     WCI  28
DES MOINES     CLOUDY    36  33  89 NW14      30.01F FOG     WCI  27
GRINNELL*      CLOUDY    33  33  99 W17       29.98S FOG     WCI  22
KNOXVILLE *    CLOUDY    36  34  93 W13G20    29.98F FOG     WCI  27
MARSHALLTOWN   CLOUDY    33  32  96 W16       29.96F FOG     WCI  23
NEWTON *       CLOUDY    34  32  93 NW12G17   29.98S FOG     WCI  25
PELLA *        CLOUDY    35  34  97 NW13G20   30.00F FOG     WCI  26
PERRY *        CLOUDY    33  33  99 W12       30.01F WCI  25
$$

IAZ004>006-015-016-023>025-035-036-172000-
   NORTH CENTRAL IOWA

CITY           SKY/WX    TMP DP  RH WIND       PRES   REMARKS
ALGONA *       CLOUDY    32  32 100 NW10      29.99S FOG     WCI  24
CLARION *      FOG       32  32 100 NW12      29.98F VSB 3/4 WCI  23
ESTHERVILLE    CLOUDY    30  30 100 W8        29.99F FOG     WCI  22
FORT DODGE *   CLOUDY    34  28  80 CALM      30.01S
MASON CITY     FOG       31  30  96 NW14      29.96F VSB 1/2 WCI  21
FOREST CITY *  FOG       32  32 100 NW9       29.96F VSB 1   WCI  24
WEBSTER CITY * CLOUDY    32  32 100 NW12      29.98S FOG     WCI  23
IOWA FALLS *   FOG       33  32  96 W8        29.98F VSB 3/4 WCI  26
$$

IAZ007>011-017>019-026>030-037>042-050>054-066-172000-
   NORTHEAST IOWA

CITY           SKY/WX    TMP DP  RH WIND       PRES   REMARKS
CEDAR RAPIDS   CLOUDY    34  33  96 W17       29.93F FOG     WCI  23
CHARLES CITY * MIX PCPN  32  32 100 NW12      29.94S WCI  23
CLINTON *      CLOUDY    35  34  96 W18       29.91F FOG     WCI  24
DECORAH *      CLOUDY    34  34 100 NW7       29.89F FOG     WCI  28
DUBUQUE        CLOUDY    33  33 100 W10       29.89S FOG     WCI  25
MONTICELLO *   PTSUNNY   36  34  93 W13G25    29.91S FOG     WCI  27
OELWEIN *      FOG       32  32 100 W15       29.92F VSB 1/2 WCI  22
WATERLOO       CLOUDY    33  31  92 W10       29.94F FOG     WCI  25
$$

IAZ064-065-067-068-078-172000-
   EAST CENTRAL IOWA

CITY           SKY/WX    TMP DP  RH WIND       PRES   REMARKS
DAVENPORT      CLOUDY    35  34  96 W15       29.93S FOG     WCI  25
IOWA CITY      CLOUDY    37  34  89 W12       29.97S WCI  29
MUSCATINE *    CLOUDY    37  34  87 W12G18    29.97S WCI  30
QUAD CITIES    CLOUDY    37  34  89 W15       29.93R FOG     WCI  28
$$

IAZ062-063-075>077-085>089-095>099-172000-
   SOUTHEAST IOWA

CITY           SKY/WX    TMP DP  RH WIND       PRES   REMARKS
BURLINGTON     CLOUDY    36  35  96 W10       29.97S WCI  28
FAIRFIELD *    CLOUDY    36  34  93 W16       29.98S FOG     WCI  26
FORT MADISON * CLOUDY    36  36 100 W13       30.00S FOG     WCI  27
KEOKUK *       CLOUDY    37  36  93 W14G20    29.99S WCI  29
OSKALOOSA *    CLOUDY    35  34  99 W16       29.99S FOG     WCI  25
OTTUMWA        CLOUDY    36  33  89 W15       29.99S WCI  27
WASHINGTON *   CLOUDY    36  36 100 W13       29.98S FOG     WCI  27
$$

ABBREVIATIONS USED IN REMARKS
   TC - TEMPERATURES IN CELSIUS
  WCI - WIND CHILL INDEX
   HX - HEAT INDEX
  VSB - VISIBILITY
$$




USA.gov is the U.S. government's official web portal to all federal, state and local government web resources and services.